Regional Weather Roundup
Issued by NWS

Home | Current Version | Previous Version | Graphics & Text | Print | Product List | Glossary On
Versions: 1 2 3 4 5 6 7 8 9 10 11 12 13 14 15 16 17 18 19 20 21 22 23 24 25 26 27 28 29 30 31 32 33 34 35 36 37 38 39 40 41 42 43 44 45 46 47 48 49 50
200
ASUS43 KBIS 250410
RWRND

NORTH DAKOTA REGIONAL WEATHER ROUNDUP
NATIONAL WEATHER SERVICE BISMARCK ND
1000 PM CST FRI FEB 24 2017

NOTE: "FAIR" INDICATES FEW OR NO CLOUDS BELOW 12,000 FEET WITH NO
SIGNIFICANT WEATHER AND/OR OBSTRUCTIONS TO VISIBILITY.


NDZ001>003-009>011-017-250500-
NORTHWEST NORTH DAKOTA

CITY           SKY/WX    TMP DP  RH WIND       PRES   REMARKS
WILLISTON      FAIR      21  15  78 CALM      30.05S
MINOT          MOCLDY    22  16  78 SW6       30.05F WCI  14
$$

NDZ018>021-031>035-040>046-250500-
SOUTHWEST NORTH DAKOTA

CITY           SKY/WX    TMP DP  RH WIND       PRES   REMARKS
BISMARCK       FAIR      19  15  84 CALM      30.10F
DICKINSON      CLOUDY    20  15  81 S6        30.02S WCI  12
GARRISON         N/A     18  13  80 W5        30.06F WCI  11
HETTINGER ARPT CLOUDY    22  15  75 SE3       30.06S
$$

NDZ004>008-012>016-024-026-027-054-250500-
NORTHEAST NORTH DAKOTA

CITY           SKY/WX    TMP DP  RH WIND       PRES   REMARKS
GRAND FORKS    CLEAR     16   8  71 NW5       30.11S WCI   9
GRND FRKS AFB  CLEAR     15  11  85 W5        30.11S WCI   7
DEVILS LAKE    FAIR      17  14  88 SW5       30.08F WCI  10
$$

NDZ022-023-025-028>030-036>039-047>053-250500-
SOUTHEAST NORTH DAKOTA

CITY           SKY/WX    TMP DP  RH WIND       PRES   REMARKS
FARGO          CLEAR     18  11  74 N16       30.10S WCI   3
JAMESTOWN      FAIR      17  14  88 NW3       30.08F
$$





USA.gov is the U.S. government's official web portal to all federal, state and local government web resources and services.